Volver al catálogo

CZ-3 DEB

LostHEO
NORAD 26785·DEBRIS·🇨🇳 China

Lanzado Apr 8, 1984 desde Xichang Satellite Launch Center

Loading…

Próximos Pases (próximas 24 horas)

TLE

ObsoletoSource: Space-Track

Época: Jun 4, 2026, 23:11 UTC

1 26785U 84035C   26155.96625349  .00001757  00000-0  36433-2 0  9992
2 26785  30.2897 101.0706 6674847 261.2398  23.7372  2.97214729244273

Sigue CZ-3 DEB en tiempo real con AllMySat

Download on the App Store